Weather at Hajdúszoboszló Airport

Public forecast

Using degrees Celsius for public forecast. Weather courtesy of forecast.io.

Closest aviation weather report (METAR) to Hajdúszoboszló Airport

Closest report is Debrecen International Airport, 9.3 nm (17.2 km) E. Retrieved 2022/01/22 21:15 UTC (30 minutes ago):

LHDC 222115Z AUTO 27004KT CAVOK M03/M05 Q1025

Closest aviation forecast (TAF) to Hajdúszoboszló Airport

Forecast is more than 12 hours old.

Closest forecast is Debrecen International Airport, 9.3 nm (17.2 km) E. Retrieved 2019/12/01 21:12 UTC (2 years ago):

TAF TAF LHDC 010000Z 3021/0106 CNL